Time,TemperatureF,DewpointF,PressureIn,WindDirection,WindDirectionDegrees,WindSpeedMPH,WindSpeedGustMPH,Humidity,HourlyPrecipIn,Conditions,Clouds,dailyrainin,SoftwareType,DateUTC
2013-01-01 00:02:00,37.0,36.0,30.47,North,9,0.0,2.0,96,0.00,,,0.04,,2013-01-01 08:02:00,
2013-01-01 00:11:00,37.0,36.0,30.47,North,9,0.0,2.0,96,0.00,,,0.04,,2013-01-01 08:11:00,
2013-01-01 00:22:00,37.0,36.0,30.47,North,9,0.0,1.0,96,0.00,,,0.04,,2013-01-01 08:22:00,
2013-01-01 00:32:00,37.0,36.0,30.48,North,9,0.0,1.0,96,0.00,,,0.04,,2013-01-01 08:32:00,
2013-01-01 00:42:00,37.0,36.0,30.48,North,9,1.0,2.0,96,0.00,,,0.04,,2013-01-01 08:42:00,
2013-01-01 00:53:00,37.0,36.0,30.48,North,9,1.0,2.0,96,0.00,,,0.04,,2013-01-01 08:53:00,
2013-01-01 01:02:00,37.0,36.0,30.48,North,9,1.0,2.0,96,0.00,,,0.04,,2013-01-01 09:02:00,
2013-01-01 01:11:00,37.0,36.0,30.48,North,9,1.0,2.0,96,0.00,,,0.04,,2013-01-01 09:11:00,
2013-01-01 01:22:00,37.0,36.0,30.48,North,9,0.0,1.0,96,0.00,,,0.04,,2013-01-01 09:22:00,
2013-01-01 01:32:00,37.0,36.0,30.48,North,9,0.0,1.0,96,0.00,,,0.04,,2013-01-01 09:32:00,
2013-01-01 01:42:00,37.0,36.0,30.48,North,9,0.0,1.0,96,0.00,,,0.04,,2013-01-01 09:42:00,
2013-01-01 01:52:00,37.0,36.0,30.48,North,9,0.0,1.0,96,0.00,,,0.04,,2013-01-01 09:52:00,
2013-01-01 02:01:00,37.0,36.0,30.49,North,9,0.0,1.0,96,0.00,,,0.04,,2013-01-01 10:01:00,
2013-01-01 02:11:00,37.0,36.0,30.50,North,9,0.0,1.0,96,0.00,,,0.04,,2013-01-01 10:11:00,
2013-01-01 02:22:00,37.0,36.0,30.50,North,9,0.0,1.0,96,0.00,,,0.04,,2013-01-01 10:22:00,
2013-01-01 02:32:00,36.0,35.0,30.50,North,9,0.0,0.0,96,0.00,,,0.04,,2013-01-01 10:32:00,
2013-01-01 02:42:00,36.0,35.0,30.50,North,9,0.0,0.0,96,0.00,,,0.04,,2013-01-01 10:42:00,
2013-01-01 02:52:00,36.0,35.0,30.50,North,9,0.0,0.0,96,0.00,,,0.04,,2013-01-01 10:52:00,
2013-01-01 03:01:00,36.0,35.0,30.50,North,9,0.0,1.0,96,0.00,,,0.04,,2013-01-01 11:01:00,
2013-01-01 03:11:00,36.0,35.0,30.50,North,9,0.0,1.0,96,0.00,,,0.04,,2013-01-01 11:11:00,
2013-01-01 03:22:00,36.0,35.0,30.49,North,9,0.0,0.0,96,0.00,,,0.04,,2013-01-01 11:22:00,
2013-01-01 03:32:00,36.0,35.0,30.49,North,9,0.0,0.0,96,0.00,,,0.04,,2013-01-01 11:32:00,
2013-01-01 03:42:00,36.0,35.0,30.49,North,9,0.0,0.0,96,0.00,,,0.04,,2013-01-01 11:42:00,
2013-01-01 03:53:00,36.0,35.0,30.48,North,9,0.0,1.0,96,0.00,,,0.04,,2013-01-01 11:53:00,
2013-01-01 04:02:00,36.0,35.0,30.48,North,9,0.0,2.0,96,0.00,,,0.04,,2013-01-01 12:02:00,
2013-01-01 04:12:00,36.0,35.0,30.48,North,9,0.0,2.0,96,0.00,,,0.04,,2013-01-01 12:12:00,
2013-01-01 04:22:00,35.0,34.0,30.48,North,9,0.0,3.0,95,0.00,,,0.04,,2013-01-01 12:22:00,
2013-01-01 04:32:00,34.0,33.0,30.47,North,9,0.0,2.0,96,0.00,,,0.04,,2013-01-01 12:32:00,
2013-01-01 04:42:00,34.0,33.0,30.47,North,9,0.0,2.0,96,0.00,,,0.04,,2013-01-01 12:42:00,
2013-01-01 04:52:00,34.0,33.0,30.47,North,9,0.0,2.0,96,0.00,,,0.04,,2013-01-01 12:52:00,
2013-01-01 05:02:00,34.0,33.0,30.47,North,9,1.0,3.0,96,0.00,,,0.04,,2013-01-01 13:02:00,
2013-01-01 05:12:00,34.0,33.0,30.47,North,9,1.0,3.0,96,0.00,,,0.04,,2013-01-01 13:12:00,
2013-01-01 05:22:00,34.0,33.0,30.47,North,9,0.0,2.0,96,0.00,,,0.04,,2013-01-01 13:22:00,
2013-01-01 05:32:00,34.0,33.0,30.46,North,9,1.0,2.0,96,0.00,,,0.04,,2013-01-01 13:32:00,
2013-01-01 05:42:00,34.0,33.0,30.46,North,9,1.0,2.0,96,0.00,,,0.04,,2013-01-01 13:42:00,
2013-01-01 05:52:00,34.0,33.0,30.47,North,9,1.0,2.0,96,0.00,,,0.04,,2013-01-01 13:52:00,
2013-01-01 06:02:00,34.0,33.0,30.47,North,9,1.0,3.0,96,0.00,,,0.04,,2013-01-01 14:02:00,
2013-01-01 06:11:00,34.0,33.0,30.47,North,9,1.0,3.0,96,0.00,,,0.04,,2013-01-01 14:11:00,
2013-01-01 06:22:00,34.0,33.0,30.47,North,9,0.0,0.0,96,0.00,,,0.04,,2013-01-01 14:22:00,
2013-01-01 06:32:00,35.0,34.0,30.48,North,9,0.0,1.0,96,0.00,,,0.04,,2013-01-01 14:32:00,
2013-01-01 06:42:00,35.0,34.0,30.48,North,9,0.0,1.0,96,0.00,,,0.04,,2013-01-01 14:42:00,
2013-01-01 06:53:00,35.0,34.0,30.48,North,9,0.0,2.0,97,0.00,,,0.04,,2013-01-01 14:53:00,
2013-01-01 07:02:00,35.0,34.0,30.48,North,9,0.0,1.0,96,0.00,,,0.04,,2013-01-01 15:02:00,
2013-01-01 07:12:00,35.0,34.0,30.48,North,9,0.0,1.0,96,0.00,,,0.04,,2013-01-01 15:12:00,
2013-01-01 07:22:00,35.0,34.0,30.48,North,9,0.0,0.0,96,0.00,,,0.04,,2013-01-01 15:22:00,
2013-01-01 07:32:00,35.0,34.0,30.48,North,9,0.0,1.0,96,0.00,,,0.04,,2013-01-01 15:32:00,
2013-01-01 07:42:00,35.0,34.0,30.48,North,9,0.0,1.0,96,0.00,,,0.04,,2013-01-01 15:42:00,
2013-01-01 07:53:00,35.0,34.0,30.49,North,9,0.0,0.0,96,0.00,,,0.04,,2013-01-01 15:53:00,
2013-01-01 08:02:00,35.0,34.0,30.50,North,9,0.0,1.0,96,0.00,,,0.04,,2013-01-01 16:02:00,
2013-01-01 08:12:00,35.0,34.0,30.50,North,9,0.0,1.0,96,0.00,,,0.04,,2013-01-01 16:12:00,
2013-01-01 08:22:00,34.0,33.0,30.50,North,9,0.0,2.0,96,0.00,,,0.04,,2013-01-01 16:22:00,
2013-01-01 08:32:00,34.0,33.0,30.50,North,9,0.0,1.0,96,0.00,,,0.04,,2013-01-01 16:32:00,
2013-01-01 08:42:00,34.0,33.0,30.50,North,9,0.0,1.0,96,0.00,,,0.04,,2013-01-01 16:42:00,
2013-01-01 08:53:00,34.0,33.0,30.50,North,9,0.0,2.0,96,0.00,,,0.04,,2013-01-01 16:53:00,
2013-01-01 09:02:00,34.0,33.0,30.50,North,9,0.0,2.0,96,0.00,,,0.04,,2013-01-01 17:02:00,
2013-01-01 09:12:00,34.0,33.0,30.50,North,9,0.0,2.0,96,0.00,,,0.04,,2013-01-01 17:12:00,
2013-01-01 09:22:00,34.0,33.0,30.51,North,9,1.0,3.0,96,0.00,,,0.04,,2013-01-01 17:22:00,
2013-01-01 09:32:00,34.0,33.0,30.51,North,9,2.0,3.0,96,0.00,,,0.04,,2013-01-01 17:32:00,
2013-01-01 09:42:00,34.0,33.0,30.51,North,9,2.0,3.0,96,0.00,,,0.04,,2013-01-01 17:42:00,
2013-01-01 09:53:00,35.0,34.0,30.52,North,9,1.0,2.0,96,0.00,,,0.04,,2013-01-01 17:53:00,
2013-01-01 10:02:00,35.0,34.0,30.52,North,9,2.0,3.0,96,0.00,,,0.04,,2013-01-01 18:02:00,
2013-01-01 10:12:00,35.0,34.0,30.52,North,9,2.0,3.0,96,0.00,,,0.04,,2013-01-01 18:12:00,
2013-01-01 10:22:00,35.0,34.0,30.53,North,9,1.0,3.0,96,0.00,,,0.04,,2013-01-01 18:22:00,
2013-01-01 10:32:00,36.0,35.0,30.53,North,9,0.0,2.0,96,0.00,,,0.04,,2013-01-01 18:32:00,
2013-01-01 10:42:00,36.0,35.0,30.53,North,9,0.0,2.0,96,0.00,,,0.04,,2013-01-01 18:42:00,
2013-01-01 10:52:00,36.0,35.0,30.53,North,9,0.0,2.0,96,0.00,,,0.04,,2013-01-01 18:52:00,
2013-01-01 11:02:00,36.0,35.0,30.52,North,9,0.0,0.0,95,0.00,,,0.04,,2013-01-01 19:02:00,
2013-01-01 11:11:00,36.0,35.0,30.52,North,9,0.0,0.0,95,0.00,,,0.04,,2013-01-01 19:11:00,
2013-01-01 11:22:00,37.0,35.0,30.52,North,9,0.0,3.0,94,0.00,,,0.04,,2013-01-01 19:22:00,
2013-01-01 11:32:00,39.0,37.0,30.50,North,9,0.0,2.0,93,0.00,,,0.04,,2013-01-01 19:32:00,
2013-01-01 11:42:00,39.0,37.0,30.50,North,9,0.0,2.0,93,0.00,,,0.04,,2013-01-01 19:42:00,
2013-01-01 11:52:00,41.0,39.0,30.49,North,9,1.0,3.0,91,0.00,,,0.04,,2013-01-01 19:52:00,
2013-01-01 12:02:00,41.0,37.0,30.49,North,9,0.0,3.0,87,0.00,,,0.04,,2013-01-01 20:02:00,
2013-01-01 12:12:00,41.0,37.0,30.49,North,9,0.0,3.0,87,0.00,,,0.04,,2013-01-01 20:12:00,
2013-01-01 12:22:00,40.0,36.0,30.49,North,9,0.0,4.0,85,0.00,,,0.03,,2013-01-01 20:22:00,
2013-01-01 12:32:00,39.0,35.0,30.49,North,9,0.0,3.0,86,0.00,,,0.03,,2013-01-01 20:32:00,
2013-01-01 12:42:00,39.0,35.0,30.49,North,9,0.0,3.0,86,0.00,,,0.03,,2013-01-01 20:42:00,
2013-01-01 12:53:00,39.0,35.0,30.49,North,9,3.0,4.0,86,0.00,,,0.03,,2013-01-01 20:53:00,
2013-01-01 13:02:00,39.0,35.0,30.49,North,9,3.0,4.0,86,0.00,,,0.03,,2013-01-01 21:02:00,
2013-01-01 13:12:00,39.0,35.0,30.48,North,9,2.0,4.0,86,0.00,,,0.00,,2013-01-01 21:12:00,
2013-01-01 13:22:00,39.0,35.0,30.48,North,9,2.0,4.0,86,0.00,,,0.00,,2013-01-01 21:22:00,
2013-01-01 13:32:00,39.0,35.0,30.48,North,9,2.0,4.0,87,0.00,,,0.00,,2013-01-01 21:32:00,
2013-01-01 13:42:00,39.0,35.0,30.48,North,9,2.0,4.0,87,0.00,,,0.00,,2013-01-01 21:42:00,
2013-01-01 13:52:00,40.0,36.0,30.48,North,9,0.0,5.0,87,0.00,,,0.00,,2013-01-01 21:52:00,
2013-01-01 14:02:00,40.0,36.0,30.47,NNE,13,0.0,5.0,85,0.00,,,0.00,,2013-01-01 22:02:00,
2013-01-01 14:12:00,40.0,36.0,30.47,NNE,13,0.0,5.0,85,0.00,,,0.00,,2013-01-01 22:12:00,
2013-01-01 14:22:00,40.0,35.0,30.47,NNE,12,0.0,4.0,83,0.00,,,0.00,,2013-01-01 22:22:00,
2013-01-01 14:32:00,40.0,35.0,30.47,NNE,12,0.0,2.0,83,0.00,,,0.00,,2013-01-01 22:32:00,
2013-01-01 14:42:00,40.0,35.0,30.47,NNE,12,0.0,2.0,83,0.00,,,0.00,,2013-01-01 22:42:00,
2013-01-01 14:52:00,40.0,35.0,30.47,NNE,13,0.0,2.0,81,0.00,,,0.00,,2013-01-01 22:52:00,
2013-01-01 15:02:00,40.0,35.0,30.47,NNE,13,0.0,4.0,81,0.00,,,0.00,,2013-01-01 23:02:00,
2013-01-01 15:12:00,40.0,35.0,30.47,NNE,13,0.0,4.0,81,0.00,,,0.00,,2013-01-01 23:12:00,
2013-01-01 15:22:00,39.0,34.0,30.47,ESE,105,0.0,5.0,82,0.00,,,0.00,,2013-01-01 23:22:00,
2013-01-01 15:32:00,39.0,34.0,30.47,ENE,62,0.0,2.0,83,0.00,,,0.00,,2013-01-01 23:32:00,
2013-01-01 15:42:00,39.0,34.0,30.47,ENE,62,0.0,2.0,83,0.00,,,0.00,,2013-01-01 23:42:00,
2013-01-01 15:52:00,39.0,35.0,30.47,ENE,62,0.0,1.0,84,0.00,,,0.00,,2013-01-01 23:52:00,
2013-01-01 16:02:00,38.0,34.0,30.47,ENE,62,0.0,0.0,86,0.00,,,0.00,,2013-01-02 00:02:00,
2013-01-01 16:12:00,38.0,34.0,30.47,ENE,62,0.0,0.0,86,0.00,,,0.00,,2013-01-02 00:12:00,
2013-01-01 16:22:00,38.0,34.0,30.47,North,360,1.0,5.0,87,0.00,,,0.00,,2013-01-02 00:22:00,
2013-01-01 16:32:00,38.0,35.0,30.47,North,360,0.0,2.0,88,0.00,,,0.00,,2013-01-02 00:32:00,
2013-01-01 16:42:00,38.0,35.0,30.47,North,360,0.0,2.0,88,0.00,,,0.00,,2013-01-02 00:42:00,
2013-01-01 16:52:00,37.0,34.0,30.46,North,360,0.0,0.0,88,0.00,,,0.00,,2013-01-02 00:52:00,
2013-01-01 17:02:00,36.0,33.0,30.45,North,360,0.0,0.0,90,0.00,,,0.00,,2013-01-02 01:02:00,
2013-01-01 17:11:00,36.0,33.0,30.45,North,360,0.0,0.0,90,0.00,,,0.00,,2013-01-02 01:11:00,
2013-01-01 17:22:00,36.0,33.0,30.45,North,360,0.0,1.0,90,0.00,,,0.00,,2013-01-02 01:22:00,
2013-01-01 17:32:00,36.0,34.0,30.44,North,360,0.0,2.0,92,0.00,,,0.00,,2013-01-02 01:32:00,
2013-01-01 17:42:00,36.0,34.0,30.44,North,360,0.0,2.0,92,0.00,,,0.00,,2013-01-02 01:42:00,
2013-01-01 17:52:00,36.0,34.0,30.44,North,360,0.0,2.0,92,0.00,,,0.00,,2013-01-02 01:52:00,
2013-01-01 18:02:00,35.0,33.0,30.43,North,360,0.0,2.0,92,0.00,,,0.00,,2013-01-02 02:02:00,
2013-01-01 18:11:00,35.0,33.0,30.43,North,360,0.0,2.0,92,0.00,,,0.00,,2013-01-02 02:11:00,
2013-01-01 18:22:00,35.0,33.0,30.43,North,360,0.0,1.0,92,0.00,,,0.00,,2013-01-02 02:22:00,
2013-01-01 18:32:00,35.0,33.0,30.43,North,360,0.0,2.0,93,0.00,,,0.00,,2013-01-02 02:32:00,
2013-01-01 18:42:00,35.0,33.0,30.43,North,360,0.0,2.0,93,0.00,,,0.00,,2013-01-02 02:42:00,
2013-01-01 18:53:00,35.0,33.0,30.43,North,360,0.0,0.0,93,0.00,,,0.00,,2013-01-02 02:53:00,
2013-01-01 19:02:00,35.0,33.0,30.42,North,360,1.0,2.0,93,0.00,,,0.00,,2013-01-02 03:02:00,
2013-01-01 19:11:00,35.0,33.0,30.42,North,360,1.0,2.0,93,0.00,,,0.00,,2013-01-02 03:11:00,
2013-01-01 19:22:00,35.0,33.0,30.42,North,360,0.0,2.0,93,0.00,,,0.00,,2013-01-02 03:22:00,
2013-01-01 19:32:00,34.0,32.0,30.41,North,360,0.0,2.0,93,0.00,,,0.00,,2013-01-02 03:32:00,
2013-01-01 19:42:00,34.0,32.0,30.41,North,360,0.0,2.0,93,0.00,,,0.00,,2013-01-02 03:42:00,
2013-01-01 19:52:00,34.0,32.0,30.41,North,360,0.0,2.0,94,0.00,,,0.00,,2013-01-02 03:52:00,
2013-01-01 20:02:00,34.0,32.0,30.41,North,360,0.0,2.0,94,0.00,,,0.00,,2013-01-02 04:02:00,
2013-01-01 20:11:00,34.0,32.0,30.41,North,360,0.0,2.0,94,0.00,,,0.00,,2013-01-02 04:11:00,
2013-01-01 20:22:00,34.0,32.0,30.41,North,360,0.0,2.0,94,0.00,,,0.00,,2013-01-02 04:22:00,
2013-01-01 20:32:00,34.0,32.0,30.41,North,360,0.0,2.0,94,0.00,,,0.00,,2013-01-02 04:32:00,
2013-01-01 20:42:00,34.0,32.0,30.41,North,360,0.0,2.0,94,0.00,,,0.00,,2013-01-02 04:42:00,
2013-01-01 20:52:00,34.0,33.0,30.40,North,360,1.0,2.0,95,0.00,,,0.00,,2013-01-02 04:52:00,
2013-01-01 21:02:00,34.0,33.0,30.40,North,360,2.0,3.0,95,0.00,,,0.00,,2013-01-02 05:02:00,
2013-01-01 21:12:00,34.0,33.0,30.40,North,360,2.0,3.0,95,0.00,,,0.00,,2013-01-02 05:12:00,
2013-01-01 21:22:00,34.0,33.0,30.40,North,360,0.0,3.0,95,0.00,,,0.00,,2013-01-02 05:22:00,
2013-01-01 21:32:00,34.0,33.0,30.40,North,360,0.0,2.0,95,0.00,,,0.00,,2013-01-02 05:32:00,
2013-01-01 21:42:00,34.0,33.0,30.40,North,360,0.0,2.0,95,0.00,,,0.00,,2013-01-02 05:42:00,
2013-01-01 21:52:00,34.0,33.0,30.40,North,360,1.0,3.0,95,0.00,,,0.00,,2013-01-02 05:52:00,
2013-01-01 22:02:00,34.0,33.0,30.40,North,360,1.0,3.0,95,0.00,,,0.00,,2013-01-02 06:02:00,
2013-01-01 22:11:00,34.0,33.0,30.40,North,360,1.0,3.0,95,0.00,,,0.00,,2013-01-02 06:11:00,
2013-01-01 22:22:00,34.0,33.0,30.40,North,360,0.0,2.0,95,0.00,,,0.00,,2013-01-02 06:22:00,
2013-01-01 22:32:00,34.0,33.0,30.40,North,360,2.0,3.0,95,0.00,,,0.00,,2013-01-02 06:32:00,
2013-01-01 22:42:00,34.0,33.0,30.40,North,360,2.0,3.0,95,0.00,,,0.00,,2013-01-02 06:42:00,
2013-01-01 22:52:00,34.0,33.0,30.40,North,360,2.0,3.0,95,0.00,,,0.00,,2013-01-02 06:52:00,
2013-01-01 23:02:00,34.0,33.0,30.40,North,360,2.0,3.0,95,0.00,,,0.00,,2013-01-02 07:02:00,
2013-01-01 23:12:00,34.0,33.0,30.40,North,360,2.0,3.0,95,0.00,,,0.00,,2013-01-02 07:12:00,
2013-01-01 23:22:00,34.0,33.0,30.40,North,360,3.0,4.0,95,0.00,,,0.00,,2013-01-02 07:22:00,
2013-01-01 23:32:00,34.0,33.0,30.40,North,360,3.0,4.0,96,0.00,,,0.00,,2013-01-02 07:32:00,
2013-01-01 23:42:00,34.0,33.0,30.40,North,360,3.0,4.0,96,0.00,,,0.00,,2013-01-02 07:42:00,
2013-01-01 23:52:00,33.0,32.0,30.40,North,360,2.0,4.0,96,0.00,,,0.00,,2013-01-02 07:52:00,